Weather History for GMFO - January, 2013

Change the Weather History Date:

Wednesday, January 9, 2013

  Actual Average Record
Temperature  
Mean Temperature 47 °F -  
Max Temperature 62 °F 59 °F 73 °F (2014)
Min Temperature 32 °F 38 °F 24 °F (2005)
Degree Days  
Heating Degree Days 18    
Moisture  
Dew Point 38 °F    
Average Humidity 77    
Maximum Humidity 93    
Minimum Humidity 46    
Precipitation  
Precipitation 0.00 in 0.04 in - ()
Sea Level Pressure  
Sea Level Pressure 30.34 in    
Wind  
Wind Speed 4 mph ()    
Max Wind Speed 14 mph    
Max Gust Speed -    
Visibility 8.4 miles    
Events      
Averages and records for this station are not official NWS values.
T = Trace of Precipitation, MM = Missing Value Source: Averaged Metar Reports

Daily Weather History Graph

Daily Weather History Graph

Search for Another Location

Airport or City:

Trip Planner

Search our weather history database for the weather conditions in past years. The results will help you decide how hot, cold, wet, or windy it might be!

Date:

Astronomy

Jan. 09, 2013 Rise Set
Actual Time 7:15 AM WET 5:14 PM WET
Civil Twilight 6:47 AM WET 5:42 PM WET
Nautical Twilight 6:16 AM WET 6:13 PM WET
Astronomical Twilight 5:46 AM WET 6:43 PM WET
Moon 4:39 AM WET (1/9) 3:00 PM WET (1/9)
Length of Visible Light 10h 54m
Length of Day
9h 58m
Waning Crescent, 8% of the Moon is Illuminated
Jan 9
Waning Crescent
Jan 11
New
Jan 18
First Quarter
Jan 27
Full
Feb 3
Last Quarter

Hourly Weather History & Observations

Time (WET) Temp. Windchill Dew Point Humidity Pressure Visibility Wind Dir Wind Speed Gust Speed Precip Events Conditions
12:00 AM 38 °F - 35 °F 86% 30.43 in 6 mi SSW 4.6 mph - -  
12:00 AM 37.4 °F 33.8 °F 35.6 °F 93% 30.36 in - SSW 4.6 mph - N/A   Clear
2:00 AM 37.4 °F - 33.8 °F 87% 30.36 in - Variable 1.2 mph - N/A   Clear
3:00 AM 36 °F - 33 °F 84% 30.42 in 6 mi SSW 6.9 mph - -  
3:00 AM 35.6 °F 29.9 °F 33.8 °F 93% 30.33 in 6.2 mi South 6.9 mph - N/A   Unknown
4:00 AM 35.6 °F 32.8 °F 33.8 °F 93% 30.33 in - West 3.5 mph - N/A   Clear
5:00 AM 33.8 °F 28.6 °F 32.0 °F 93% 30.30 in - WSW 5.8 mph - N/A   Clear
6:00 AM 35 °F - 34 °F 92% 30.39 in 12 mi Calm Calm - -  
6:00 AM 35.6 °F - 33.8 °F 93% 30.30 in - Calm Calm - N/A   Clear
8:00 AM 33.8 °F 27.7 °F 32.0 °F 93% 30.33 in - SSW 6.9 mph - N/A   Clear
9:00 AM 39.2 °F - 37.4 °F 93% 30.36 in - Calm Calm - N/A   Clear
10:00 AM 46.4 °F 44.3 °F 41.0 °F 81% 30.36 in - North 4.6 mph - N/A   Clear
11:00 AM 55.4 °F - 42.8 °F 63% 30.36 in - NW 3.5 mph - N/A   Clear
12:00 PM 60 °F - 45 °F 46% 30.31 in 12 mi North 5.8 mph - -   Clear
12:00 PM 60.8 °F - 44.6 °F 55% 30.33 in - North 5.8 mph - N/A   Clear
1:00 PM 62.6 °F - 44.6 °F 52% 30.30 in - North 10.4 mph - N/A   Clear
2:00 PM 62.6 °F - 42.8 °F 48% 30.30 in - North 6.9 mph - N/A   Clear
4:00 PM 57.2 °F - 37.4 °F 48% 30.30 in - North 13.8 mph - N/A   Clear
5:00 PM 55.4 °F - 39.2 °F 54% 30.30 in - North 11.5 mph - N/A   Clear
7:00 PM 48.2 °F - 41.0 °F 76% 30.33 in - SSW 6.9 mph - N/A   Clear
8:00 PM 46.4 °F 43.5 °F 39.2 °F 76% 30.33 in - West 5.8 mph - N/A   Clear
9:00 PM 44.6 °F 43.1 °F 37.4 °F 76% 30.36 in - SW 3.5 mph - N/A   Clear
10:00 PM 42.8 °F 38.6 °F 39.2 °F 87% 30.36 in - SSW 6.9 mph - N/A   Clear
11:00 PM 42.8 °F 41.1 °F 37.4 °F 81% 30.36 in - SW 3.5 mph - N/A   Clear